Grand Junction, CO

4:08 AM MDT on April 21, 2018 (GMT -0600)
Walker

Weather History for KGJT - June, 2014

Change the Weather History Date:

Monday, June 30, 2014

  Actual Average Record
Temperature  
Mean Temperature 77 °F 76 °F  
Max Temperature 96 °F 92 °F 103 °F (2002)
Min Temperature 58 °F 61 °F 38 °F (1968)
Degree Days  
Heating Degree Days 0 0  
Month to date heating degree days 19 20  
Since 1 June heating degree days 19 22  
Since 1 July heating degree days 6269 5611  
Cooling Degree Days 12 12  
Month to date cooling degree days 198 231  
Year to date cooling degree days 257 282  
Since 1 June cooling degree days 198 231  
Growing Degree Days 26 (Base 50)    
Moisture  
Dew Point 27 °F    
Average Humidity 20    
Maximum Humidity 32    
Minimum Humidity 7    
Precipitation  
Precipitation 0.00 in 0.01 in 0.28 in (1979)
Month to date precipitation 0.13 0.46  
Year to date precipitation 3.91 4.29  
Snow  
Snow 0.00 in 0.00 in 0.00 in (2016)
Month to date snowfall 0.0 0.0  
Since 1 June snowfall 0.0 0.0  
Since 1 July snowfall 25.7 19.1  
Snow Depth 0.00 in    
Sea Level Pressure  
Sea Level Pressure 29.74 in    
Wind  
Wind Speed 8 mph (NW)    
Max Wind Speed 20 mph    
Max Gust Speed 26 mph    
Visibility 10 miles    
Events      
T = Trace of Precipitation, MM = Missing Value Source: NWS Daily Summary

Daily Weather History Graph

Daily Weather History Graph

Search for Another Location

Airport or City:

Astronomy

Jun. 30, 2014 Rise Set
Actual Time 5:51 AM MDT 8:44 PM MDT
Civil Twilight 5:19 AM MDT 9:16 PM MDT
Nautical Twilight 4:38 AM MDT 9:56 PM MDT
Astronomical Twilight 3:52 AM MDT 10:42 PM MDT
Moon 9:05 AM MDT (6/30) 10:40 PM MDT (6/30)
Length of Visible Light 15h 56m
Length of Day
14h 52m
Waxing Crescent, 10% of the Moon is Illuminated
Jun 30
Waxing Crescent
Jul 5
First Quarter
Jul 12
Full
Jul 18
Last Quarter
Jul 26
New

Hourly Weather History & Observations

Time (MDT) Temp. Dew Point Humidity Pressure Visibility Wind Dir Wind Speed Gust Speed Precip Events Conditions
12:53 AM 73.0 °F 28.0 °F 19% 29.70 in 10.0 mi SE 9.2 mph - N/A   Clear
1:53 AM 73.9 °F 28.9 °F 19% 29.70 in 10.0 mi SE 9.2 mph - N/A   Clear
2:53 AM 73.0 °F 30.0 °F 20% 29.70 in 10.0 mi ESE 10.4 mph - N/A   Clear
3:53 AM 66.9 °F 30.0 °F 25% 29.72 in 10.0 mi East 4.6 mph - N/A   Clear
4:53 AM 66.0 °F 30.9 °F 27% 29.73 in 10.0 mi ESE 6.9 mph - N/A   Clear
5:53 AM 61.0 °F 30.0 °F 31% 29.77 in 10.0 mi Calm Calm - N/A   Clear
6:53 AM 64.0 °F 30.9 °F 29% 29.78 in 10.0 mi ENE 3.5 mph - N/A   Clear
7:53 AM 71.1 °F 33.1 °F 25% 29.78 in 10.0 mi South 3.5 mph - N/A   Clear
8:53 AM 75.9 °F 34.0 °F 22% 29.80 in 10.0 mi Calm Calm - N/A   Clear
9:53 AM 81.0 °F 30.0 °F 16% 29.81 in 10.0 mi Calm Calm - N/A   Clear
10:53 AM 86.0 °F 35.1 °F 16% 29.79 in 10.0 mi West 9.2 mph - N/A   Clear
11:53 AM 89.1 °F 30.0 °F 12% 29.78 in 10.0 mi West 11.5 mph - N/A   Clear
12:53 PM 91.9 °F 28.9 °F 11% 29.76 in 10.0 mi NW 11.5 mph 20.7 mph N/A   Clear
1:53 PM 91.9 °F 28.0 °F 10% 29.75 in 10.0 mi NNW 13.8 mph 20.7 mph N/A   Clear
2:53 PM 93.9 °F 27.0 °F 9% 29.72 in 10.0 mi North - - N/A   Clear
3:53 PM 95.0 °F 24.1 °F 8% 29.69 in 10.0 mi North 10.4 mph 20.7 mph N/A   Clear
4:53 PM 95.0 °F 24.1 °F 8% 29.68 in 10.0 mi West 10.4 mph - N/A   Scattered Clouds
5:53 PM 95.0 °F 21.9 °F 7% 29.68 in 10.0 mi NW 11.5 mph - N/A   Scattered Clouds
6:53 PM 95.0 °F 32.0 °F 11% 29.67 in 10.0 mi WNW 11.5 mph - N/A   Clear
7:53 PM 91.0 °F 21.9 °F 8% 29.66 in 10.0 mi NNW 12.7 mph - N/A   Clear
8:53 PM 84.0 °F 21.0 °F 10% 29.68 in 10.0 mi NNW 10.4 mph - N/A   Clear
9:53 PM 77.0 °F 25.0 °F 15% 29.73 in 10.0 mi WSW 6.9 mph - N/A   Clear
10:53 PM 71.6 °F 28.4 °F 20% 29.98 in 10.0 mi Calm Calm - N/A   Clear
11:53 PM 78.1 °F 16.0 °F 10% 29.75 in 10.0 mi North 11.5 mph - N/A   Clear